📊 Raw Sensor Data

Showing records 51801 to 51825 of 85,153 total

ID Distance (ft) Battery V Battery A Int Temp (°F) Int Humid (%) Ext Temp (°F) Solar V RSSI SNR Time Stamp
33365 14.5 3.84 -5 42 38 42 0.10 -83 8 02/25/2025 04:30 AM
33364 14.5 3.78 -5 41 38 43 0.00 -78 8 02/25/2025 04:15 AM
33363 14.5 3.78 -5 42 38 43 0.10 -77 8 02/25/2025 04:00 AM
33362 14.5 3.79 -5 42 38 43 0.00 -75 9 02/25/2025 03:45 AM
33361 14.5 3.84 -5 43 38 43 0.00 -74 8 02/25/2025 03:30 AM
33360 14.5 3.79 -5 43 38 47 0.00 -72 8 02/25/2025 03:15 AM
33359 14.5 3.79 -5 43 39 45 0.00 -73 8 02/25/2025 03:00 AM
33358 14.4 3.84 -5 43 39 44 0.00 -71 8 02/25/2025 02:45 AM
33357 14.5 3.79 -5 43 39 45 0.00 -72 7 02/25/2025 02:30 AM
33356 14.5 3.79 -5 43 39 43 0.10 -71 8 02/25/2025 02:15 AM
33355 14.4 3.79 -5 44 39 45 0.00 -72 8 02/25/2025 02:00 AM
33354 14.4 3.79 -5 45 40 46 0.00 -71 8 02/25/2025 01:45 AM
33353 14.4 3.79 -5 46 39 46 0.00 -71 7 02/25/2025 01:30 AM
33352 14.4 3.79 -5 47 40 48 0.00 -71 8 02/25/2025 01:15 AM
33351 14.4 3.79 -5 48 39 48 0.00 -70 8 02/25/2025 01:00 AM
33350 14.4 3.79 -5 49 39 49 0.00 -71 7 02/25/2025 12:45 AM
33349 14.4 3.79 -5 50 39 51 0.00 -71 8 02/25/2025 12:30 AM
33348 14.4 3.79 -5 51 39 52 0.10 -71 7 02/25/2025 12:15 AM
33347 14.4 3.85 -5 51 39 53 0.10 -71 8 02/25/2025 12:00 AM
33346 14.4 3.85 -5 51 39 53 0.00 -72 7 02/24/2025 11:45 PM
33345 14.4 3.80 -5 52 39 53 0.00 -71 8 02/24/2025 11:30 PM
33344 14.4 3.80 -5 52 39 54 0.00 -71 8 02/24/2025 11:15 PM
33343 14.4 3.80 -5 52 39 54 0.00 -72 7 02/24/2025 11:00 PM
33342 14.4 3.85 -5 53 39 54 0.00 -71 8 02/24/2025 10:45 PM
33341 14.4 3.80 -5 53 39 54 0.00 -71 8 02/24/2025 10:30 PM